When you browse on this site, cookies collect data to enhance your experience and personalize the content and advertising you see.
Visit our Privacy Policy to learn more. By continuing to use the site, you agree to this use of cookies and data.
  • In Hungary
  • List of Countries
  • For 7 days
  • Water Temperature
  • Weather Map
  • News
  • Weather Widgets
  • user-avatar
    Login

    Hourly Weather Kzyl-Yalan

    Today, 26 February, Wednesday

    Time Temperature Precipitation Wind Pressure Humidity
    00:00 -1°C° 0.1 mm 2 mps 734 mmHg 98%
    01:00 -1°C° 0.1 mm 2 mps 734 mmHg 98%
    02:00 -1°C° 0.1 mm 2 mps 734 mmHg 98%
    03:00 -2°C° 0 mm 3 mps 734 mmHg 98%
    04:00 -3°C° 0.2 mm 4 mps 735 mmHg 96%
    05:00 -5°C° 0.2 mm 6 mps 735 mmHg 94%
    06:00 -6°C° 0.2 mm 7 mps 736 mmHg 92%
    07:00 -7°C° 0 mm 7 mps 737 mmHg 92%
    08:00 -8°C° 0 mm 8 mps 737 mmHg 91%
    09:00 -8°C° 0 mm 8 mps 738 mmHg 91%
    10:00 -8°C° 0 mm 7 mps 739 mmHg 90%
    11:00 -8°C° 0 mm 7 mps 739 mmHg 89%
    12:00 -8°C° 0 mm 7 mps 740 mmHg 88%
    13:00 -6°C° 0 mm 6 mps 741 mmHg 89%
    14:00 -6°C° 0 mm 6 mps 741 mmHg 89%
    15:00 -6°C° 0 mm 6 mps 742 mmHg 89%
    16:00 -6°C° 0 mm 5 mps 743 mmHg 89%
    17:00 -7°C° 0 mm 5 mps 743 mmHg 89%
    18:00 -7°C° 0 mm 4 mps 744 mmHg 89%
    19:00 -7°C° 0 mm 3 mps 744 mmHg 90%
    20:00 -8°C° 0 mm 3 mps 744 mmHg 91%
    21:00 -10°C° 0 mm 3 mps 744 mmHg 91%
    22:00 -10°C° 0 mm 3 mps 744 mmHg 90%
    23:00 -10°C° 0 mm 3 mps 744 mmHg 89%

    Tomorrow, 27 February, Thursday

    Time Temperature Precipitation Wind Pressure Humidity
    00:00 -11°C° 0 mm 4 mps 744 mmHg 87%
    01:00 -10°C° 0 mm 4 mps 744 mmHg 89%
    02:00 -9°C° 0 mm 4 mps 744 mmHg 91%
    03:00 -8°C° 0 mm 5 mps 744 mmHg 93%
    04:00 -7°C° 0.2 mm 5 mps 743 mmHg 94%
    05:00 -6°C° 0.2 mm 6 mps 743 mmHg 95%
    06:00 -4°C° 0.2 mm 6 mps 743 mmHg 96%
    07:00 -4°C° 0.4 mm 6 mps 743 mmHg 97%
    08:00 -3°C° 0.4 mm 6 mps 743 mmHg 98%
    09:00 -1°C° 0.4 mm 5 mps 743 mmHg 99%
    10:00 -1°C° 0.4 mm 5 mps 743 mmHg 99%
    11:00 -1°C° 0.4 mm 5 mps 743 mmHg 99%
    12:00 -1°C° 0.4 mm 5 mps 743 mmHg 99%
    13:00 0°C° 0.1 mm 5 mps 744 mmHg 99%
    14:00 0°C° 0.1 mm 5 mps 744 mmHg 99%
    15:00 0°C° 0.1 mm 5 mps 744 mmHg 99%
    16:00 -1°C° 0.1 mm 5 mps 744 mmHg 97%
    17:00 -2°C° 0.1 mm 6 mps 744 mmHg 96%
    18:00 -2°C° 0.1 mm 7 mps 744 mmHg 94%
    19:00 -2°C° 0 mm 6 mps 744 mmHg 92%
    20:00 -3°C° 0 mm 6 mps 744 mmHg 91%
    21:00 -3°C° 0 mm 6 mps 744 mmHg 89%
    22:00 -3°C° 0 mm 6 mps 744 mmHg 91%
    23:00 -2°C° 0 mm 6 mps 743 mmHg 93%

    Day after tomorrow, 28 February, Friday

    Time Temperature Precipitation Wind Pressure Humidity
    00:00 -2°C° 0 mm 6 mps 743 mmHg 94%
    01:00 -2°C° 0.3 mm 6 mps 743 mmHg 95%
    02:00 -1°C° 0.3 mm 7 mps 743 mmHg 96%
    03:00 -1°C° 0.3 mm 7 mps 742 mmHg 96%
    04:00 -1°C° 0 mm 7 mps 743 mmHg 97%
    05:00 -1°C° 0 mm 7 mps 743 mmHg 97%
    06:00 -1°C° 0 mm 7 mps 743 mmHg 98%
    07:00 -1°C° 0 mm 7 mps 743 mmHg 98%
    08:00 -1°C° 0 mm 7 mps 743 mmHg 99%
    09:00 -1°C° 0 mm 7 mps 744 mmHg 99%
    10:00 -1°C° 0 mm 7 mps 744 mmHg 99%
    11:00 -1°C° 0 mm 7 mps 744 mmHg 99%
    12:00 -1°C° 0 mm 7 mps 744 mmHg 99%
    13:00 -1°C° 0 mm 7 mps 744 mmHg 99%
    14:00 -1°C° 0 mm 7 mps 744 mmHg 99%
    15:00 -1°C° 0 mm 7 mps 744 mmHg 99%
    16:00 -1°C° 0 mm 7 mps 744 mmHg 98%
    17:00 -1°C° 0 mm 7 mps 744 mmHg 96%
    18:00 -1°C° 0 mm 7 mps 744 mmHg 94%
    19:00 -2°C° 0 mm 8 mps 744 mmHg 90%
    20:00 -2°C° 0 mm 8 mps 744 mmHg 85%
    21:00 -3°C° 0 mm 9 mps 744 mmHg 80%
    22:00 -2°C° 0 mm 8 mps 744 mmHg 81%
    23:00 -2°C° 0 mm 8 mps 743 mmHg 82%

    29 February, Saturday

    Time Temperature Precipitation Wind Pressure Humidity
    00:00 -2°C° 0 mm 8 mps 743 mmHg 82%
    01:00 -2°C° 0 mm 8 mps 743 mmHg 83%
    02:00 -3°C° 0 mm 7 mps 742 mmHg 83%
    03:00 -3°C° 0 mm 7 mps 742 mmHg 83%
    04:00 -3°C° 0 mm 7 mps 742 mmHg 85%
    05:00 -3°C° 0 mm 7 mps 742 mmHg 86%
    06:00 -3°C° 0 mm 7 mps 742 mmHg 87%
    07:00 -3°C° 0.3 mm 6 mps 742 mmHg 90%
    08:00 -4°C° 0.3 mm 6 mps 742 mmHg 92%
    09:00 -4°C° 0.3 mm 6 mps 742 mmHg 95%
    10:00 -2°C° 0.6 mm 5 mps 742 mmHg 96%
    11:00 -2°C° 0.6 mm 5 mps 742 mmHg 98%
    12:00 -2°C° 0.6 mm 4 mps 742 mmHg 99%
    13:00 -2°C° 0.4 mm 4 mps 742 mmHg 99%
    14:00 -2°C° 0.4 mm 4 mps 742 mmHg 99%
    15:00 -2°C° 0.4 mm 4 mps 743 mmHg 99%
    16:00 -2°C° 0 mm 4 mps 743 mmHg 97%
    17:00 -2°C° 0 mm 4 mps 744 mmHg 95%
    18:00 -3°C° 0 mm 4 mps 745 mmHg 93%
    19:00 -3°C° 0 mm 4 mps 745 mmHg 92%
    20:00 -2°C° 0 mm 3 mps 746 mmHg 92%
    21:00 -4°C° 0 mm 3 mps 747 mmHg 91%
    22:00 -4°C° 0 mm 3 mps 747 mmHg 91%
    23:00 -3°C° 0 mm 2 mps 748 mmHg 91%

    1 March, Sunday

    Time Temperature Precipitation Wind Pressure Humidity
    00:00 -3°C° 0 mm 2 mps 748 mmHg 91%
    01:00 -3°C° 0 mm 2 mps 749 mmHg 91%
    02:00 -3°C° 0 mm 2 mps 749 mmHg 91%
    03:00 -3°C° 0 mm 2 mps 750 mmHg 91%
    04:00 -4°C° 0 mm 2 mps 750 mmHg 92%
    05:00 -5°C° 0 mm 2 mps 751 mmHg 92%
    06:00 -5°C° 0 mm 2 mps 751 mmHg 93%
    07:00 -5°C° 0 mm 2 mps 751 mmHg 93%
    08:00 -5°C° 0 mm 2 mps 752 mmHg 93%
    09:00 -4°C° 0 mm 2 mps 752 mmHg 93%
    10:00 -4°C° 0 mm 2 mps 753 mmHg 93%
    11:00 -3°C° 0 mm 2 mps 753 mmHg 92%
    12:00 -2°C° 0 mm 2 mps 753 mmHg 92%
    13:00 -2°C° 0 mm 2 mps 754 mmHg 92%
    14:00 0°C° 0 mm 1 mps 754 mmHg 92%
    15:00 0°C° 0 mm 1 mps 754 mmHg 92%
    16:00 -1°C° 0 mm 1 mps 754 mmHg 92%
    17:00 -2°C° 0 mm 1 mps 754 mmHg 91%
    18:00 -3°C° 0 mm 1 mps 754 mmHg 91%
    19:00 -4°C° 0 mm 1 mps 755 mmHg 91%
    20:00 -4°C° 0 mm 1 mps 755 mmHg 91%
    21:00 -4°C° 0 mm 1 mps 755 mmHg 90%
    22:00 -5°C° 0 mm 0 mps 755 mmHg 91%
    23:00 -5°C° 0 mm 0 mps 755 mmHg 91%

    2 March, Monday

    Time Temperature Precipitation Wind Pressure Humidity
    00:00 -6°C° 0 mm 0 mps 756 mmHg 91%
    01:00 -6°C° 0 mm 0 mps 756 mmHg 91%
    02:00 -6°C° 0 mm 0 mps 756 mmHg 91%
    03:00 -6°C° 0 mm 0 mps 756 mmHg 91%
    04:00 -6°C° 0 mm 0 mps 756 mmHg 92%
    05:00 -6°C° 0 mm 0 mps 756 mmHg 92%
    06:00 -7°C° 0 mm 1 mps 757 mmHg 92%
    07:00 -6°C° 0 mm 1 mps 757 mmHg 92%
    08:00 -4°C° 0 mm 1 mps 757 mmHg 92%
    09:00 -4°C° 0 mm 1 mps 758 mmHg 93%
    10:00 -3°C° 0 mm 1 mps 758 mmHg 92%
    11:00 -2°C° 0 mm 1 mps 758 mmHg 91%
    12:00 -1°C° 0 mm 1 mps 758 mmHg 90%
    13:00 -2°C° 0 mm 0 mps 758 mmHg 90%
    14:00 -2°C° 0 mm 0 mps 758 mmHg 91%
    15:00 -3°C° 0 mm 0 mps 758 mmHg 91%
    16:00 -3°C° 0 mm 0 mps 758 mmHg 91%
    17:00 -4°C° 0 mm 0 mps 758 mmHg 91%
    18:00 -4°C° 0 mm 1 mps 758 mmHg 91%
    19:00 -6°C° 0 mm 1 mps 758 mmHg 91%
    20:00 -6°C° 0 mm 1 mps 758 mmHg 90%
    21:00 -6°C° 0 mm 1 mps 758 mmHg 90%
    22:00 -6°C° 0 mm 1 mps 758 mmHg 90%
    23:00 -6°C° 0 mm 1 mps 758 mmHg 90%
    Show more